QPF
0.00 0.00 0.00 0.00 0.00 0.00 0.00 0.00 0.00 0.00 0.00 0.00 0.00 0.00 0.00 0.00 0.00 0.00 0.00 0.00 0.00 0.00 0.00 0.00 0.00 0.00 0.01 0.01 0.01 0.01 0.01 0.00 0.00 0.00 0.00 0.00 0.00 0.00 0.00 0.00 0.01 0.02 0.01
0.00 0.00 0.00 0.00 0.00 0.00 0.00 0.00 0.00 0.00 0.00 0.00 0.00 0.00 0.00 0.00 0.00 0.00 0.00 0.00 0.00 0.00 0.00 0.00 0.00 0.00 0.00 0.00 0.00 0.00 0.00 0.00 0.01 0.00 0.00 0.00 0.00 0.00 0.00 0.00 0.00 0.00 0.01
0.00 0.00 0.00 0.00 0.00 0.00 0.00 0.00 0.00 0.00 0.00 0.00 0.00 0.00 0.00 0.00 0.00 0.00 0.00 0.00 0.00 0.00 0.00 0.00 0.00 0.00 0.00 0.00 0.00 0.00 0.00 0.00 0.00 0.00 0.00 0.00 0.00 0.00 0.00 0.00 0.00 0.00 0.00
0.00 0.00 0.00 0.00 0.00 0.00 0.00 0.00 0.00 0.00 0.00 0.00 0.00 0.00 0.00 0.00 0.00 0.00 0.00 0.00 0.00 0.00 0.00 0.00 0.00 0.00 0.00 0.00 0.00 0.00 0.00 0.00 0.00 0.00 0.00 0.00 0.00 0.00 0.00 0.00 0.00 0.00 0.00
0.00 0.00 0.00 0.00 0.00 0.00 0.00 0.00 0.00 0.00 0.00 0.00 0.00 0.00 0.00 0.00 0.00 0.00 0.00 0.00 0.00 0.00 0.00 0.00 0.00 0.00 0.00 0.00 0.00 0.00 0.00 0.00 0.00 0.00 0.00 0.00 0.00 0.00 0.00 0.00 0.00 0.00 0.00
0.00 0.00 0.00 0.00 0.00 0.00 0.00 0.00 0.00 0.00 0.00 0.00 0.00 0.00 0.00 0.00 0.00 0.00 0.00 0.00 0.00 0.00 0.00 0.00 0.00 0.00 0.00 0.00 0.00 0.00 0.00 0.00 0.00 0.00 0.00 0.00 0.00 0.00 0.00 0.00 0.00 0.00 0.00
0.00 0.00 0.00 0.00 0.00 0.00 0.00 0.00 0.00 0.00 0.00 0.00 0.00 0.00 0.00 0.00 0.00 0.00 0.00 0.00 0.00 0.00 0.00 0.00 0.00 0.00 0.00 0.00 0.00 0.00 0.00 0.00 0.00 0.00 0.00 0.00 0.00 0.00 0.00 0.00 0.00 0.00 0.00
0.00 0.00 0.00 0.00 0.00 0.00 0.00 0.00 0.00 0.00 0.00 0.00 0.00 0.00 0.00 0.00 0.00 0.00 0.00 0.00 0.00 0.00 0.00 0.00 0.00 0.00 0.00 0.00 0.00 0.00 0.00 0.00 0.00 0.00 0.00 0.00 0.00 0.00 0.00 0.00 0.00 0.00 0.00
0.00 0.00 0.00 0.00 0.00 0.00 0.00 0.00 0.00 0.00 0.00 0.00 0.00 0.00 0.00 0.00 0.00 0.00 0.00 0.00 0.00 0.00 0.00 0.00 0.00 0.00 0.00 0.00 0.00 0.00 0.00 0.00 0.00 0.00 0.00 0.00 0.00 0.00 0.00 0.00 0.00 0.00 0.00
0.00 0.00 0.00 0.00 0.00 0.00 0.00 0.00 0.00 0.00 0.00 0.00 0.00 0.00 0.00 0.00 0.00 0.00 0.00 0.00 0.00 0.00 0.00 0.00 0.00 0.00 0.00 0.00 0.00 0.00 0.00 0.00 0.00 0.00 0.00 0.00 0.00 0.00 0.00 0.00 0.00 0.00 0.00
0.00 0.00 0.00 0.00 0.00 0.00 0.00 0.00 0.00 0.00 0.00 0.00 0.00 0.00 0.00 0.00 0.00 0.00 0.00 0.00 0.00 0.00 0.00 0.00 0.00 0.00 0.00 0.00 0.00 0.00 0.00 0.00 0.00 0.00 0.00 0.00 0.00 0.00 0.00 0.00 0.00 0.00 0.00
0.00 0.00 0.00 0.00 0.00 0.00 0.00 0.00 0.00 0.00 0.00 0.00 0.00 0.00 0.00 0.00 0.00 0.00 0.00 0.00 0.00 0.00 0.00 0.00 0.00 0.00 0.00 0.00 0.00 0.00 0.00 0.00 0.00 0.00 0.00 0.00 0.00 0.00 0.00 0.00 0.00 0.00 0.00
0.00 0.00 0.00 0.00 0.00 0.00 0.00 0.00 0.00 0.00 0.00 0.00 0.00 0.00 0.00 0.00 0.00 0.00 0.00 0.00 0.00 0.00 0.00 0.00 0.00 0.00 0.00 0.00 0.00 0.00 0.00 0.00 0.00 0.00 0.00 0.00 0.00 0.00 0.00 0.00 0.00 0.00 0.00
0.00 0.00 0.00 0.00 0.00 0.00 0.00 0.00 0.00 0.00 0.00 0.00 0.00 0.00 0.00 0.00 0.00 0.00 0.00 0.00 0.00 0.00 0.00 0.00 0.00 0.00 0.00 0.00 0.00 0.00 0.00 0.00 0.00 0.00 0.00 0.00 0.00 0.00 0.00 0.00 0.00 0.00 0.00
0.00 0.00 0.00 0.00 0.00 0.00 0.00 0.00 0.00 0.00 0.00 0.00 0.00 0.00 0.00 0.00 0.00 0.00 0.00 0.00 0.00 0.00 0.00 0.00 0.00 0.00 0.00 0.00 0.00 0.00 0.00 0.00 0.00 0.00 0.00 0.00 0.00 0.00 0.00 0.00 0.00 0.00 0.00
0.00 0.00 0.00 0.00 0.00 0.00 0.00 0.00 0.00 0.00 0.00 0.00 0.00 0.00 0.00 0.00 0.00 0.00 0.00 0.00 0.00 0.00 0.00 0.00 0.00 0.00 0.00 0.00 0.00 0.00 0.00 0.00 0.00 0.00 0.00 0.00 0.00 0.00 0.00 0.00 0.00 0.00 0.00
0.00 0.00 0.00 0.00 0.00 0.00 0.00 0.00 0.00 0.00 0.00 0.00 0.00 0.00 0.00 0.00 0.00 0.00 0.00 0.00 0.00 0.00 0.00 0.00 0.00 0.00 0.00 0.00 0.00 0.00 0.00 0.00 0.00 0.00 0.00 0.00 0.00 0.00 0.00 0.00 0.00 0.00 0.00
0.00 0.00 0.00 0.00 0.00 0.00 0.00 0.00 0.00 0.00 0.00 0.00 0.00 0.00 0.00 0.00 0.00 0.00 0.00 0.00 0.00 0.00 0.00 0.00 0.00 0.00 0.00 0.00 0.00 0.00 0.00 0.00 0.00 0.00 0.00 0.00 0.00 0.00 0.00 0.00 0.00 0.00 0.00
0.00 0.00 0.00 0.00 0.00 0.00 0.00 0.00 0.00 0.00 0.00 0.00 0.00 0.00 0.00 0.00 0.00 0.00 0.00 0.00 0.00 0.00 0.00 0.00 0.00 0.00 0.00 0.00 0.00 0.00 0.00 0.00 0.00 0.00 0.00 0.00 0.00 0.00 0.00 0.00 0.00 0.00 0.00
0.00 0.00 0.00 0.00 0.00 0.00 0.00 0.00 0.00 0.00 0.00 0.00 0.00 0.00 0.00 0.00 0.00 0.00 0.00 0.00 0.00 0.00 0.00 0.00 0.00 0.00 0.00 0.00 0.00 0.00 0.00 0.00 0.00 0.00 0.00 0.00 0.00 0.00 0.00 0.00 0.00 0.00 0.00
0.00 0.00 0.00 0.00 0.00 0.00 0.00 0.00 0.00 0.00 0.00 0.00 0.00 0.00 0.00 0.00 0.00 0.00 0.00 0.00 0.00 0.00 0.00 0.00 0.00 0.00 0.00 0.00 0.00 0.00 0.00 0.00 0.00 0.00 0.00 0.00 0.00 0.00 0.00 0.00 0.00 0.00 0.00
0.00 0.00 0.00 0.00 0.00 0.00 0.00 0.00 0.00 0.00 0.00 0.00 0.00 0.00 0.00 0.00 0.00 0.00 0.00 0.00 0.00 0.00 0.00 0.00 0.00 0.00 0.00 0.00 0.00 0.00 0.00 0.00 0.00 0.00 0.00 0.00 0.00 0.00 0.00 0.00 0.00 0.00 0.00
0.00 0.00 0.00 0.00 0.00 0.00 0.00 0.00 0.00 0.00 0.00 0.00 0.00 0.00 0.00 0.00 0.00 0.00 0.00 0.00 0.00 0.00 0.00 0.00 0.00 0.00 0.00 0.00 0.00 0.00 0.00 0.00 0.00 0.00 0.00 0.00 0.00 0.00 0.00 0.00 0.00 0.00 0.00
0.00 0.00 0.00 0.00 0.00 0.00 0.00 0.00 0.00 0.00 0.00 0.00 0.00 0.00 0.00 0.00 0.00 0.00 0.00 0.00 0.00 0.00 0.00 0.00 0.00 0.00 0.00 0.00 0.00 0.00 0.00 0.00 0.00 0.00 0.00 0.00 0.00 0.00 0.00 0.00 0.00 0.00 0.00
0.00 0.00 0.00 0.00 0.00 0.00 0.00 0.00 0.00 0.00 0.00 0.00 0.00 0.00 0.00 0.00 0.00 0.00 0.00 0.00 0.00 0.00 0.00 0.00 0.00 0.00 0.00 0.00 0.00 0.00 0.00 0.00 0.00 0.00 0.00 0.00 0.00 0.00 0.00 0.00 0.00 0.00 0.00
0.00 0.00 0.00 0.00 0.00 0.00 0.00 0.00 0.00 0.00 0.00 0.00 0.00 0.00 0.00 0.00 0.00 0.00 0.00 0.00 0.00 0.00 0.00 0.00 0.00 0.00 0.00 0.00 0.00 0.00 0.00 0.00 0.00 0.00 0.00 0.00 0.00 0.00 0.00 0.00 0.00 0.00 0.00
MSLP
1015.63 1015.54 1015.67 1015.64 1015.56 1015.52 1015.34 1015.16 1015.01 1014.67 1014.27 1013.89 1013.49 1013.01 1012.52 1012.02 1011.60 1011.16 1010.67 1010.22 1009.82 1009.35 1008.98 1008.61 1008.23 1007.85 1007.73 1007.68 1007.54 1007.27 1007.20 1007.01 1005.84 1005.45 1005.62 1005.14 1004.99 1004.52 1004.40 1004.40 1004.12 1004.03 1003.62
1015.28 1015.35 1015.50 1015.59 1015.57 1015.52 1015.39 1015.22 1014.92 1014.42 1014.00 1013.60 1013.11 1012.55 1011.96 1011.45 1011.01 1010.57 1009.98 1009.46 1008.99 1008.45 1008.02 1007.72 1007.40 1007.38 1007.28 1007.11 1007.15 1006.95 1006.91 1006.66 1006.46 1005.37 1004.97 1005.12 1005.12 1004.73 1004.50 1004.41 1004.41 1004.32 1004.03
1015.02 1015.28 1015.48 1015.58 1015.67 1015.64 1015.38 1015.24 1014.66 1014.22 1013.75 1013.22 1012.65 1012.08 1011.54 1010.99 1010.38 1009.84 1009.35 1008.69 1008.11 1007.54 1007.11 1006.84 1006.67 1006.67 1006.48 1006.41 1006.49 1006.41 1006.35 1006.13 1005.82 1005.37 1004.90 1004.88 1004.35 1004.80 1004.43 1004.13 1004.56 1004.48 1004.47
1015.03 1015.41 1015.73 1015.80 1015.78 1015.48 1015.37 1015.18 1014.44 1013.93 1013.49 1012.98 1012.48 1011.84 1011.20 1010.48 1009.80 1009.13 1008.46 1007.73 1007.00 1006.54 1006.31 1006.15 1006.05 1005.85 1005.63 1005.75 1005.87 1005.99 1005.86 1005.54 1005.08 1004.96 1004.22 1004.56 1004.63 1004.56 1004.44 1004.21 1004.49 1004.83 1005.30
1015.11 1015.61 1015.88 1015.86 1015.58 1015.32 1015.18 1014.69 1014.15 1013.69 1013.28 1012.86 1012.42 1011.74 1010.95 1010.08 1009.27 1008.45 1007.79 1006.92 1006.11 1005.89 1005.85 1005.79 1005.51 1005.34 1005.24 1005.24 1005.25 1005.17 1005.15 1004.84 1004.25 1004.08 1003.90 1003.79 1004.28 1004.44 1004.05 1004.07 1004.54 1004.94 1005.79
1015.09 1015.53 1015.93 1015.91 1015.76 1015.40 1014.91 1014.57 1014.04 1013.61 1013.05 1012.70 1012.36 1011.76 1010.94 1010.01 1008.99 1008.23 1007.59 1006.96 1006.26 1005.94 1005.57 1005.29 1004.97 1004.75 1004.61 1004.51 1004.44 1004.47 1004.55 1004.24 1003.91 1003.60 1003.29 1003.28 1003.48 1003.55 1003.90 1004.13 1004.57 1005.18 1006.39
1014.93 1015.47 1015.61 1015.77 1015.85 1015.64 1014.90 1014.71 1014.28 1013.70 1012.99 1012.73 1012.38 1011.79 1011.03 1010.15 1009.02 1008.27 1007.79 1007.33 1006.63 1006.19 1005.75 1005.17 1004.50 1004.04 1003.80 1003.72 1003.68 1003.59 1003.50 1003.52 1003.33 1003.15 1003.00 1002.83 1002.84 1002.96 1003.48 1004.03 1004.46 1004.97 1005.80
1014.63 1015.20 1015.15 1015.38 1015.54 1015.32 1015.11 1014.85 1014.59 1013.80 1013.24 1012.88 1012.59 1012.04 1011.29 1010.54 1009.36 1008.53 1008.05 1007.56 1007.02 1006.45 1005.70 1005.13 1004.43 1003.69 1003.29 1003.19 1003.18 1003.15 1003.17 1002.99 1002.83 1002.59 1002.40 1002.17 1002.12 1002.36 1002.67 1003.14 1004.23 1005.40 1006.20
1014.10 1014.54 1014.56 1014.99 1015.16 1015.14 1014.64 1014.65 1014.56 1014.00 1013.42 1013.04 1012.46 1012.21 1011.52 1010.70 1009.76 1008.97 1008.42 1007.88 1007.38 1006.89 1006.17 1005.43 1004.62 1003.92 1003.20 1002.49 1002.61 1002.89 1003.12 1002.91 1002.32 1002.02 1001.81 1001.75 1001.94 1002.32 1002.43 1003.30 1004.50 1005.08 1006.63
1013.09 1013.58 1013.96 1014.37 1014.67 1014.56 1013.92 1013.85 1013.67 1013.45 1013.26 1012.83 1012.50 1012.16 1011.62 1011.19 1010.28 1009.41 1008.84 1008.47 1008.05 1007.41 1006.68 1005.96 1005.19 1004.46 1003.72 1003.21 1003.23 1003.49 1003.74 1003.98 1003.77 1003.75 1003.47 1003.29 1002.83 1003.17 1003.55 1003.46 1003.99 1004.59 1005.86
1012.07 1012.80 1013.42 1013.51 1013.86 1013.74 1013.64 1012.96 1013.05 1013.13 1012.80 1012.57 1012.46 1012.01 1011.51 1011.11 1010.62 1009.77 1009.20 1009.03 1008.76 1008.34 1007.66 1006.99 1006.19 1005.48 1004.84 1004.30 1004.17 1004.26 1004.56 1004.84 1004.73 1004.61 1004.53 1004.49 1004.62 1004.96 1005.12 1005.13 1005.13 1005.31 1005.86
1011.49 1012.02 1012.48 1012.64 1012.92 1012.91 1012.86 1012.69 1012.44 1012.58 1012.66 1012.43 1012.18 1012.09 1011.73 1011.19 1010.61 1010.16 1009.69 1009.29 1009.05 1008.81 1008.40 1008.01 1007.41 1006.62 1005.97 1005.65 1005.47 1005.31 1005.27 1005.35 1005.55 1005.89 1006.14 1006.30 1006.22 1006.50 1006.67 1006.57 1006.52 1006.82 1007.29
1010.82 1011.25 1011.52 1011.63 1011.85 1012.15 1012.24 1011.98 1012.12 1012.23 1012.21 1012.33 1012.34 1012.30 1011.90 1011.45 1010.97 1010.50 1010.10 1009.71 1009.45 1009.34 1008.95 1008.53 1008.16 1007.81 1007.61 1007.13 1006.66 1006.59 1006.72 1006.71 1006.80 1007.13 1007.61 1007.86 1007.93 1008.05 1007.73 1007.64 1007.76 1007.76 1008.08
1010.04 1010.39 1010.66 1011.08 1011.06 1011.47 1011.75 1011.90 1011.77 1011.87 1012.14 1012.07 1012.21 1012.20 1011.86 1011.45 1011.08 1010.57 1010.24 1009.95 1009.73 1009.64 1009.53 1009.28 1008.95 1008.62 1008.17 1008.28 1008.26 1008.25 1008.13 1008.06 1008.36 1008.63 1008.81 1008.86 1008.76 1008.78 1008.75 1008.71 1009.02 1009.14 1009.46
1009.08 1009.41 1009.72 1009.98 1010.37 1010.58 1010.74 1010.97 1011.20 1011.24 1011.30 1011.42 1011.44 1011.69 1011.81 1011.44 1010.68 1010.26 1010.01 1009.97 1009.86 1009.84 1010.07 1010.12 1010.02 1009.91 1009.93 1009.78 1009.66 1009.59 1009.49 1009.42 1009.43 1009.56 1009.63 1009.68 1009.56 1009.42 1009.61 1009.48 1009.79 1009.83 1010.74
1008.07 1008.47 1008.75 1009.06 1009.40 1009.85 1010.24 1010.50 1010.27 1010.33 1010.44 1010.52 1010.51 1010.70 1010.71 1010.51 1010.23 1010.05 1009.95 1009.80 1009.74 1009.79 1010.63 1011.38 1011.69 1011.46 1011.31 1011.18 1011.10 1011.02 1010.81 1010.66 1010.78 1010.74 1010.73 1010.59 1010.55 1010.55 1010.55 1010.56 1010.62 1011.21 1012.08
1006.68 1007.03 1007.64 1008.18 1008.45 1008.83 1009.40 1009.77 1010.15 1010.21 1010.00 1009.98 1010.04 1010.19 1010.16 1010.15 1010.05 1009.94 1009.86 1009.79 1009.88 1010.15 1011.04 1011.82 1012.21 1012.06 1012.08 1011.93 1011.75 1011.54 1011.68 1011.77 1011.34 1011.69 1011.72 1011.75 1011.69 1011.74 1011.72 1011.97 1012.08 1012.36 1013.24
1005.76 1006.04 1006.49 1006.91 1007.37 1007.89 1008.25 1008.64 1009.02 1009.48 1009.83 1010.01 1009.88 1009.92 1009.91 1009.91 1009.85 1009.90 1009.88 1010.15 1010.50 1010.89 1011.26 1011.82 1012.13 1012.04 1012.09 1012.19 1012.32 1012.43 1012.45 1012.50 1012.42 1012.46 1012.56 1012.63 1012.59 1012.61 1012.73 1013.00 1013.14 1013.84 1014.40
1005.08 1005.26 1005.59 1005.88 1006.26 1006.68 1007.28 1007.82 1008.42 1008.90 1009.22 1009.62 1009.88 1009.65 1009.61 1009.68 1009.75 1009.73 1009.87 1010.65 1011.06 1011.30 1011.44 1011.77 1012.01 1012.24 1012.31 1012.21 1012.34 1012.51 1012.67 1012.55 1012.71 1012.96 1013.02 1013.05 1013.31 1013.36 1013.55 1013.53 1013.68 1013.94 1014.23
1004.39 1004.55 1004.77 1005.22 1005.63 1006.08 1006.65 1007.21 1007.81 1008.39 1008.99 1009.35 1009.55 1009.39 1009.91 1010.03 1009.94 1010.10 1010.23 1010.60 1010.84 1010.99 1011.06 1011.22 1011.72 1011.88 1012.00 1012.20 1012.22 1012.16 1012.35 1012.65 1012.78 1012.86 1012.96 1013.11 1013.34 1013.42 1013.60 1013.71 1013.86 1014.28 1014.55
1003.90 1004.10 1004.24 1004.65 1005.03 1005.19 1005.68 1006.29 1006.82 1007.55 1008.09 1008.49 1008.52 1008.56 1008.78 1009.08 1009.43 1009.74 1009.98 1010.31 1010.68 1010.89 1010.78 1010.78 1010.74 1010.85 1011.20 1011.33 1011.55 1012.14 1012.62 1012.68 1012.59 1012.52 1012.80 1012.78 1012.63 1013.14 1013.16 1013.33 1013.53 1013.75 1014.01
1003.63 1003.93 1004.16 1004.28 1004.52 1004.89 1005.17 1005.59 1006.23 1006.75 1007.24 1007.65 1007.88 1008.05 1007.96 1008.54 1008.89 1009.06 1009.19 1009.35 1009.35 1009.48 1009.61 1009.95 1010.26 1010.43 1010.63 1010.87 1011.08 1011.10 1011.70 1011.94 1011.74 1011.89 1011.98 1012.19 1012.55 1012.74 1012.89 1013.00 1013.35 1013.62 1013.91
1003.63 1003.94 1004.17 1004.45 1004.74 1005.05 1005.45 1005.84 1006.31 1006.68 1007.03 1007.32 1007.62 1007.90 1008.00 1008.26 1008.65 1008.86 1008.86 1008.65 1008.88 1009.11 1009.54 1009.68 1010.16 1010.59 1010.74 1010.93 1010.82 1010.96 1010.99 1011.07 1010.99 1011.02 1011.18 1011.54 1011.87 1012.12 1012.31 1012.51 1012.73 1013.02 1013.28
1003.89 1003.90 1004.17 1004.57 1004.92 1005.13 1005.47 1006.00 1006.29 1006.64 1006.94 1007.27 1007.58 1007.85 1008.02 1008.22 1008.51 1008.55 1008.27 1008.33 1008.85 1009.29 1009.61 1009.92 1010.15 1010.43 1010.84 1010.96 1010.81 1010.81 1010.83 1010.68 1010.48 1010.81 1011.06 1011.18 1011.50 1011.63 1011.78 1012.00 1012.22 1012.37 1012.54
1004.32 1004.22 1004.49 1004.83 1005.12 1005.37 1005.81 1006.19 1006.48 1006.74 1006.97 1007.24 1007.56 1007.89 1008.12 1008.42 1008.64 1008.68 1008.85 1009.05 1009.40 1009.81 1010.18 1010.38 1010.57 1010.65 1010.70 1010.74 1010.95 1010.94 1010.90 1010.75 1010.72 1010.75 1010.94 1011.08 1011.10 1011.15 1011.24 1011.51 1011.76 1012.00 1012.20
1006.02 1005.97 1006.03 1006.09 1006.24 1006.37 1006.52 1006.75 1007.15 1007.46 1007.82 1008.23 1008.50 1008.72 1008.91 1009.11 1009.36 1009.53 1009.71 1009.91 1010.24 1010.53 1010.83 1010.96 1010.99 1011.00 1011.12 1011.11 1011.05 1010.85 1010.74 1010.56 1010.48 1010.48 1010.68 1010.93 1010.97 1010.95 1010.95 1011.21 1011.52 1011.77 1012.03
Thickness
5516 5513 5506 5498 5488 5476 5468 5462 5456 5452 5447 5444 5441 5440 5437 5433 5428 5426 5423 5420 5416 5412 5406 5399 5395 5393 5390 5388 5388 5392 5393 5397 5415 5429 5432 5445 5457 5467 5475 5485 5494 5505 5519
5512 5507 5500 5490 5479 5468 5462 5456 5451 5448 5444 5441 5439 5438 5435 5431 5427 5424 5422 5419 5415 5410 5402 5393 5387 5381 5376 5373 5370 5371 5372 5378 5385 5404 5418 5424 5435 5446 5457 5466 5475 5486 5498
5507 5501 5493 5481 5469 5460 5456 5451 5449 5445 5441 5438 5438 5437 5433 5430 5427 5425 5421 5418 5414 5409 5400 5391 5382 5375 5370 5364 5360 5358 5358 5364 5370 5381 5399 5404 5420 5427 5441 5453 5458 5469 5477
5501 5494 5484 5473 5463 5457 5452 5448 5446 5444 5440 5438 5435 5433 5432 5430 5429 5426 5424 5422 5419 5412 5401 5390 5380 5373 5367 5358 5350 5344 5344 5349 5356 5364 5386 5393 5399 5412 5425 5440 5447 5451 5457
5493 5483 5475 5466 5459 5455 5450 5449 5446 5441 5439 5436 5432 5430 5430 5430 5429 5429 5427 5426 5425 5414 5402 5389 5380 5371 5364 5354 5346 5339 5337 5339 5348 5356 5370 5380 5388 5399 5417 5425 5433 5440 5438
5484 5477 5469 5462 5455 5452 5449 5447 5445 5441 5439 5434 5430 5427 5427 5428 5428 5427 5425 5423 5421 5413 5405 5394 5383 5374 5366 5358 5350 5343 5337 5338 5341 5352 5365 5378 5390 5397 5404 5413 5421 5432 5432
5478 5473 5467 5460 5453 5451 5449 5445 5444 5441 5439 5435 5431 5429 5427 5427 5426 5424 5421 5417 5414 5409 5402 5397 5390 5382 5374 5367 5359 5353 5350 5348 5350 5356 5365 5377 5389 5394 5398 5405 5415 5421 5422
5472 5468 5464 5458 5452 5450 5447 5444 5441 5440 5439 5435 5432 5427 5426 5424 5425 5425 5421 5417 5413 5407 5403 5398 5395 5391 5383 5376 5370 5364 5361 5359 5361 5366 5375 5384 5391 5396 5402 5407 5408 5407 5414
5472 5468 5464 5457 5452 5447 5448 5443 5440 5439 5438 5434 5432 5427 5427 5427 5428 5428 5424 5421 5417 5410 5405 5401 5398 5395 5392 5390 5382 5375 5370 5370 5374 5379 5384 5391 5396 5399 5404 5405 5404 5409 5404
5474 5470 5465 5456 5450 5447 5449 5446 5442 5439 5439 5436 5434 5428 5427 5424 5426 5428 5425 5419 5414 5413 5409 5405 5403 5400 5395 5392 5387 5381 5375 5370 5370 5372 5377 5383 5390 5393 5396 5403 5406 5411 5406
5474 5468 5461 5456 5452 5449 5447 5448 5444 5440 5438 5434 5432 5430 5427 5425 5422 5425 5423 5417 5411 5408 5406 5404 5404 5403 5399 5395 5389 5382 5377 5373 5373 5374 5376 5379 5381 5382 5385 5389 5394 5402 5405
5470 5466 5461 5458 5453 5450 5448 5447 5445 5440 5436 5432 5431 5427 5425 5424 5425 5423 5421 5419 5414 5409 5406 5403 5402 5402 5401 5398 5392 5387 5383 5378 5374 5372 5371 5372 5375 5374 5377 5381 5384 5386 5387
5466 5463 5459 5457 5454 5450 5446 5447 5442 5438 5433 5430 5427 5423 5421 5420 5419 5419 5418 5416 5413 5407 5405 5404 5402 5399 5395 5393 5392 5388 5383 5379 5376 5371 5365 5363 5364 5365 5369 5371 5373 5375 5376
5464 5460 5456 5451 5451 5447 5443 5440 5436 5431 5427 5426 5422 5418 5414 5415 5415 5414 5413 5410 5408 5405 5401 5399 5398 5396 5395 5389 5384 5381 5379 5376 5372 5369 5366 5365 5364 5363 5363 5364 5364 5365 5365
5463 5459 5456 5452 5448 5445 5442 5438 5433 5431 5427 5420 5417 5413 5408 5407 5411 5413 5411 5407 5402 5401 5393 5389 5387 5384 5382 5379 5376 5373 5371 5369 5368 5364 5364 5362 5363 5364 5362 5362 5361 5359 5353
5462 5456 5454 5450 5446 5441 5436 5430 5434 5431 5428 5424 5422 5415 5411 5411 5411 5409 5406 5404 5402 5398 5384 5373 5371 5370 5369 5365 5363 5361 5361 5361 5358 5357 5354 5354 5354 5354 5354 5353 5352 5346 5343
5464 5460 5452 5446 5443 5438 5431 5427 5422 5418 5420 5417 5415 5411 5408 5405 5403 5401 5399 5397 5394 5388 5371 5364 5362 5361 5358 5354 5352 5352 5350 5348 5348 5346 5343 5342 5341 5340 5340 5337 5337 5334 5324
5458 5455 5449 5444 5439 5433 5429 5424 5419 5412 5408 5401 5403 5401 5398 5396 5394 5391 5388 5383 5372 5370 5362 5356 5354 5351 5350 5347 5344 5340 5339 5337 5335 5333 5330 5328 5327 5326 5323 5320 5318 5312 5306
5453 5450 5443 5439 5435 5430 5423 5418 5411 5404 5399 5391 5385 5388 5386 5385 5381 5379 5376 5362 5356 5353 5349 5346 5342 5340 5339 5337 5334 5332 5329 5328 5324 5321 5317 5315 5312 5311 5306 5304 5302 5300 5295
5448 5445 5441 5435 5429 5423 5417 5410 5403 5396 5386 5383 5377 5376 5367 5364 5359 5357 5353 5348 5344 5341 5339 5337 5332 5329 5327 5324 5322 5321 5320 5315 5313 5310 5307 5304 5302 5299 5294 5291 5286 5282 5277
5440 5436 5434 5428 5422 5419 5413 5405 5398 5388 5381 5375 5373 5366 5366 5359 5354 5346 5342 5335 5333 5329 5329 5328 5327 5326 5321 5319 5315 5307 5303 5302 5299 5298 5296 5293 5291 5288 5283 5280 5274 5267 5265
5425 5421 5420 5418 5412 5406 5402 5396 5387 5380 5374 5368 5360 5354 5360 5349 5343 5338 5335 5333 5331 5327 5324 5319 5315 5311 5309 5306 5301 5299 5296 5291 5289 5285 5282 5277 5273 5270 5267 5262 5254 5249 5244
5413 5407 5402 5394 5390 5386 5379 5373 5369 5365 5358 5353 5346 5342 5337 5333 5331 5327 5325 5323 5319 5313 5305 5302 5296 5289 5288 5287 5286 5283 5280 5277 5275 5272 5270 5265 5261 5257 5253 5249 5245 5241 5236
5398 5396 5390 5384 5378 5372 5365 5358 5350 5346 5342 5337 5331 5325 5321 5318 5314 5312 5309 5307 5299 5291 5286 5280 5276 5271 5267 5266 5264 5262 5259 5259 5259 5254 5251 5248 5243 5241 5238 5234 5230 5226 5222
5381 5379 5373 5367 5362 5357 5349 5340 5332 5327 5323 5320 5312 5305 5302 5296 5294 5290 5285 5281 5274 5269 5263 5259 5255 5253 5250 5249 5246 5243 5240 5238 5236 5233 5230 5228 5226 5225 5222 5218 5213 5209 5205
5348 5346 5343 5340 5336 5332 5328 5323 5316 5309 5304 5296 5290 5285 5280 5275 5269 5265 5260 5256 5250 5246 5241 5238 5234 5232 5228 5226 5224 5222 5220 5219 5217 5215 5211 5208 5204 5203 5201 5198 5194 5189 5186